This is the latest recevied weather packets stored in our database for station/object IW0RQH-13. If no packets are shown the sender has not sent any weather packets the latest 10 day(s).
| Time | Temp. | Humidity | Pressure | Rain* | Wind** | Luminosity | Snow |
|---|---|---|---|---|---|---|---|
| 1777649763 | 16.67° C | 36% | 1021.9 hPa | 0 mm | - | 244 W/m² | - |
| 1777649223 | 16.67° C | 36% | 1021.6 hPa | 0 mm | - | 265 W/m² | - |
| 1777646704 | 16.67° C | 36% | 1021.7 hPa | 0 mm | - | 367 W/m² | - |
| 1777644545 | 16.67° C | 33% | 1021.5 hPa | 0 mm | - | 229 W/m² | - |
| 1777643110 | 16.67° C | 35% | 1021.7 hPa | 0 mm | - | 518 W/m² | - |
| 1777642045 | 16.67° C | 36% | 1021.8 hPa | 0 mm | - | 564 W/m² | - |
| 1777640046 | 16.67° C | 35% | 1022.1 hPa | 0 mm | - | 634 W/m² | - |
| 1777632847 | 15.56° C | 39% | 1022.9 hPa | 0 mm | - | 795 W/m² | - |
| 1777628165 | 14.44° C | 45% | 1023.3 hPa | 0 mm | - | 272 W/m² | - |
| 1777627635 | 14.44° C | 44% | 1023.5 hPa | 0 mm | - | 692 W/m² | - |
| 1777626545 | 14.44° C | 43% | 1023.5 hPa | 0 mm | - | 793 W/m² | - |
| 1777615743 | 11.67° C | 53% | 1022.4 hPa | 0 mm | - | 196 W/m² | - |
| 1777608543 | 10° C | 57% | 1022.1 hPa | 0 mm | - | 4 W/m² | - |
| 1777607644 | 10° C | 58% | 1021.9 hPa | 0 mm | - | 0 W/m² | - |
| 1777607126 | 9.44° C | 60% | 1021.8 hPa | 0 mm | - | 0 W/m² | - |
| 1777606563 | 9.44° C | 59% | 1021.9 hPa | 0 mm | - | 0 W/m² | - |
| 1777605483 | 10° C | 58% | 1021.9 hPa | 0 mm | - | 0 W/m² | - |
| 1777604404 | 10.56° C | 56% | 1021.8 hPa | 0 mm | - | 0 W/m² | - |
| 1777600805 | 10.56° C | 54% | 1021.4 hPa | 0 mm | - | 0 W/m² | - |
| 1777600443 | 10.56° C | 54% | 1021.5 hPa | 0 mm | - | 0 W/m² | - |
| 1777599366 | 10.56° C | 53% | 1021.5 hPa | 0 mm | - | 0 W/m² | - |
| 1777598284 | 11.11° C | 52% | 1021.3 hPa | 0 mm | - | 0 W/m² | - |
| 1777597203 | 11.11° C | 52% | 1021.5 hPa | 0 mm | - | 0 W/m² | - |
| 1777593604 | 11.11° C | 52% | 1021.3 hPa | 0 mm | - | 0 W/m² | - |
| 1777591098 | 11.11° C | 54% | 1021.3 hPa | 0 mm | - | 0 W/m² | - |
* Rain latest hour (hover to see other rain measurements)
** Current wind speed in m/s (hover to see current wind gust speed)